Retour au catalogue

STARLINK-35885

ActifCommunicationsVLEO
NORAD 66890·PAYLOAD·🇺🇸 United States

Lancé Dec 4, 2025 depuis Vandenberg Space Force Base

Loading…

Prochains Passages (prochaines 24 heures)

TLE

FraisSource: CelesTrak SupGP

Époque: Sep 14, 2026, 23:12 UTC

1 66890C 25283N   26257.96715278  .00005056  00000+0  14934-3 0  2572
2 66890  53.1583 221.5688 0001340  89.6587 199.6987 15.34397179    18

Suivez STARLINK-35885 en temps réel avec AllMySat

Download on the App Store